{"data":{"norad_id":64718,"intl_designator":"2025-142Y","name":"STARLINK-34546","alt_names":[],"object_type":"PAYLOAD","status":"ACTIVE","operator":null,"country":"US","launch_date":"2025-06-28","launch_site_code":"AFWTR","launch_vehicle":null,"mission":null,"orbit_class":"UNKNOWN","rcs_meters":null,"size_class":null,"mass_kg":null,"dimensions":null,"purposes":["comms"],"wikipedia_slug":null,"has_3d_model":false,"image_url":null,"decayed_at":null,"tle_current":{"epoch":"2026-05-25T04:30:20.679840Z","epoch_age_seconds":58553,"freshness":"FRESH","line1":"1 64718U 25142Y   26145.18773935  .00002508  00000+0  21785-3 0  9991","line2":"2 64718  70.0002 121.4081 0003538 265.3811  94.6944 14.98335852 51111","mean_motion":14.98335852,"eccentricity":0.0003538,"inclination_deg":70.0002,"raan_deg":121.4081,"arg_perigee_deg":265.3811,"mean_anomaly_deg":94.6944,"bstar":0.00021785,"rev_number":5111,"period_min":96.106623763816,"perigee_km":569.57882233387,"apogee_km":574.49676601823,"semimajor_km":6950.174794176,"source":"CELESTRAK","updated_at":"2026-05-25T13:38:20.517400Z"}}}